Regional Weather Roundup
Issued by NWS Northern Indiana

Home | Current Version | Previous Version | Graphics & Text | Print | Product List | Glossary On
Versions: 1 2 3 4 5 6 7 8 9 10 11 12 13 14 15 16 17 18 19 20 21 22 23 24 25 26 27 28 29 30 31 32 33 34 35 36 37 38 39 40 41 42 43 44 45 46 47 48 49 50
274
ASUS43 KIWX 161910
RWRIWX

KIWX WEATHER ROUNDUP
NATIONAL WEATHER SERVICE NORTHERN INDIANA
200 PM EST TUE JAN 16 2018

NOTE: "FAIR" INDICATES FEW OR NO CLOUDS BELOW 12,000 FEET WITH NO
SIGNIFICANT WEATHER AND/OR OBSTRUCTIONS TO VISIBILITY.

* THESE STATIONS ARE NOT UNDER NWS QUALITY CONTROL. THEY ALSO MAY NOT
  REPORT WEATHER SUCH AS PRECIPITATION OR FOG.

INZ001>027-162000-
NORTHERN INDIANA

CITY           SKY/WX    TMP DP  RH WIND       PRES   REMARKS
GARY*          LGT SNOW  25  18  74 W17       30.43F WCI  11
VALPARAISO     CLOUDY    18  12  77 W10       30.41F HAZE    WCI   6
MICHIGAN CITY* FAIR      21  12  68 CALM      30.43S
LAPORTE*       FAIR      10   4  78 CALM      30.42S
KNOX*          CLOUDY    12   7  79 SW12      30.44S WCI  -2
SOUTH BEND     CLOUDY     8   2  76 SW7       30.42F HAZE    WCI  -3
ELKHART*       FAIR       9   1  72 CALM      30.42F
GOSHEN         LGT SNOW   7   1  76 SW12      30.42S WCI  -8
MONTICELLO*    LGT SNOW   6   0  73 SW13G18   30.47S WCI -10
LOGANSPORT*    LGT SNOW   9   3  78 W16       30.48S WCI  -9
ROCHESTER*     FAIR      10   3  72 SW10      30.45S WCI  -3
WARSAW*        FLURRIES   9   1  72 SW8       30.43R WCI  -4
AUBURN*        PTSUNNY    9   0  66 SW5       30.42F WCI   0
FORT WAYNE     FAIR       5  -2  72 SW12      30.45S WCI -11
HUNTINGTON*    FAIR       5  -4  67 SW8       30.45S WCI  -8
PERU/GRISSOM   FLURRIES   6   1  79 SW13      30.45S WCI -10
MARION*        FAIR       3  -3  75 W12       30.47S WCI -13

$$
INZ028>050-162000-
CENTRAL INDIANA

CITY           SKY/WX    TMP DP  RH WIND       PRES   REMARKS
LAFAYETTE      CLOUDY     7   1  76 W15       30.50S WCI -10
MUNCIE*        CLOUDY     6  -3  66 W10       30.45F WCI  -9
INDIANAPOLIS   FLURRIES   4  -3  73 SW16      30.51S WCI -15

$$
MIZ043>046-050>051-056>058-064>065-071>073-077>080-162000-
SOUTHWEST LOWER MICHIGAN

CITY           SKY/WX    TMP DP  RH WIND       PRES   REMARKS
BATTLE CREEK   LGT SNOW   9   4  80 SW6       30.38S VSB 1   WCI  -1
BENTON HARBOR  FAIR      15   3  59 CALM      30.43S
COLDWATER*     LGT SNOW   8   2  78 SW5       30.39S WCI  -1
HILLSDALE*     LGT SNOW  10   3  72 SW5       30.35S WCI   2
HOLLAND        CLOUDY    18  12  77 W6        30.41S WCI  10
GRAND RAPIDS   PTSUNNY   16   8  71 SW9       30.38S WCI   4
KALAMAZOO      LGT SNOW  10   3  73 W5        30.40S WCI   2
STURGIS*       LGT SNOW   9   2  74 SW6       30.40R WCI  -1
THREE RIVERS*  LGT SNOW  10   3  72 SW3       30.42S VSB 1

$$
OHZ001>008-015>018-024>025-162000-
NORTHWEST OHIO

CITY           SKY/WX    TMP DP  RH WIND       PRES   REMARKS
WAUSEON*       FAIR       9   1  72 W13       30.42R HAZE    WCI  -7
DEFIANCE       PTSUNNY    5  -3  69 SW9       30.45S WCI  -9
FINDLAY        CLOUDY     5  -3  69 W15       30.43S WCI -13
TOLEDO EXPRESS LGT SNOW   6   1  80 SW13      30.42F WCI -10
TOLEDO METCALF LGT SNOW   6  -1  73 SW14      30.44S WCI -11
LIMA           FLURRIES   4  -2  76 W15       30.42S WCI -14

$$
AND FOR LAKE MICHIGAN COASTAL AND OPEN LAKE BUOY OBSERVATIONS

STATION/POSITION TEMP    WIND        PRES    VSBY  WAVE
                 AIR SEA DIR/SP/G                  HT/PER
                 (F)     (DEG/KT/KT) (MB)    (MI)  (FT/S)
CALUMET HARBOR    23     280/ 10/ 15 1029.5F
MICHIGAN CITY            130/  6/  7   N/A
BURNS HARBOR      24     320/ 14/ 21 1030.1
SAINT JOSEPH      19     110/  2/  3 1031.2

$$
&&




USA.gov is the U.S. government's official web portal to all federal, state and local government web resources and services.